date,time,SUV Intensity [MED/Hr],UV Index,Daily total [MED],Since Last [MED]
29/08/2023,00:00:39,0.000,0.0,0.0,0.0
29/08/2023,00:01:38,0.000,0.0,0.0,0.0
29/08/2023,00:02:38,-0.001,0.0,0.0,0.0
29/08/2023,00:03:39,0.000,0.0,0.0,0.0
29/08/2023,00:04:39,-0.001,0.0,0.0,0.0
29/08/2023,00:05:39,0.000,0.0,0.0,0.0
29/08/2023,00:06:39,0.000,0.0,0.0,0.0
29/08/2023,00:07:39,0.000,0.0,0.0,0.0
29/08/2023,00:08:38,0.000,0.0,0.0,0.0
29/08/2023,00:09:38,0.000,0.0,0.0,0.0
29/08/2023,00:10:38,0.000,0.0,0.0,0.0
29/08/2023,00:11:39,0.000,0.0,0.0,0.0
29/08/2023,00:12:38,0.000,0.0,0.0,0.0
29/08/2023,00:13:39,0.000,0.0,0.0,0.0
29/08/2023,00:14:39,-0.001,0.0,0.0,0.0
29/08/2023,00:15:40,0.000,0.0,0.0,0.0
29/08/2023,00:16:38,0.000,0.0,0.0,0.0
29/08/2023,00:17:39,0.000,0.0,0.0,0.0
29/08/2023,00:18:38,0.000,0.0,0.0,0.0
29/08/2023,00:19:36,0.000,0.0,0.0,0.0
29/08/2023,00:20:36,0.000,0.0,0.0,0.0
29/08/2023,00:21:39,-0.001,0.0,0.0,0.0
29/08/2023,00:22:38,0.000,0.0,0.0,0.0
29/08/2023,00:23:39,0.000,0.0,0.0,0.0
29/08/2023,00:24:38,0.000,0.0,0.0,0.0
29/08/2023,00:25:38,0.000,0.0,0.0,0.0
29/08/2023,00:26:39,0.000,0.0,0.0,0.0
29/08/2023,00:27:38,0.000,0.0,0.0,0.0
29/08/2023,00:28:38,-0.001,0.0,0.0,0.0
29/08/2023,00:29:39,0.000,0.0,0.0,0.0
29/08/2023,00:30:39,0.000,0.0,0.0,0.0
29/08/2023,00:31:39,0.000,0.0,0.0,0.0
29/08/2023,00:32:38,0.000,0.0,0.0,0.0
29/08/2023,00:33:39,0.000,0.0,0.0,0.0
29/08/2023,00:34:39,0.000,0.0,0.0,0.0
29/08/2023,00:35:39,0.000,0.0,0.0,0.0
29/08/2023,00:36:39,0.000,0.0,0.0,0.0
29/08/2023,00:37:38,0.000,0.0,0.0,0.0
29/08/2023,00:38:36,0.000,0.0,0.0,0.0
29/08/2023,00:39:37,0.000,0.0,0.0,0.0
29/08/2023,00:40:38,0.000,0.0,0.0,0.0
29/08/2023,00:41:39,0.000,0.0,0.0,0.0
29/08/2023,00:42:38,0.000,0.0,0.0,0.0
29/08/2023,00:43:38,0.000,0.0,0.0,0.0
29/08/2023,00:44:38,0.000,0.0,0.0,0.0
29/08/2023,00:45:38,0.000,0.0,0.0,0.0
29/08/2023,00:46:38,0.000,0.0,0.0,0.0
29/08/2023,00:47:39,0.000,0.0,0.0,0.0
29/08/2023,00:48:38,0.000,0.0,0.0,0.0
29/08/2023,00:49:38,0.000,0.0,0.0,0.0
29/08/2023,00:50:39,0.000,0.0,0.0,0.0
29/08/2023,00:51:39,0.000,0.0,0.0,0.0
29/08/2023,00:52:38,0.001,0.0,0.0,0.0
29/08/2023,00:53:39,-0.001,0.0,0.0,0.0
29/08/2023,00:54:38,0.000,0.0,0.0,0.0
29/08/2023,00:55:39,0.000,0.0,0.0,0.0
29/08/2023,00:56:38,0.000,0.0,0.0,0.0
29/08/2023,00:57:39,0.000,0.0,0.0,0.0
29/08/2023,00:58:39,0.000,0.0,0.0,0.0
29/08/2023,00:59:39,0.000,0.0,0.0,0.0
29/08/2023,01:00:38,0.000,0.0,0.0,0.0
29/08/2023,01:01:39,0.000,0.0,0.0,0.0
29/08/2023,01:02:38,0.001,0.0,0.0,0.0
29/08/2023,01:03:38,0.000,0.0,0.0,0.0
29/08/2023,01:04:39,0.001,0.0,0.0,0.0
29/08/2023,01:05:39,0.000,0.0,0.0,0.0
29/08/2023,01:06:38,0.000,0.0,0.0,0.0
29/08/2023,01:07:38,-0.001,0.0,0.0,0.0
29/08/2023,01:08:38,-0.000,0.0,0.0,0.0
29/08/2023,01:09:39,0.000,0.0,0.0,0.0
29/08/2023,01:10:39,0.000,0.0,0.0,0.0
29/08/2023,01:11:38,0.000,0.0,0.0,0.0
29/08/2023,01:12:38,0.000,0.0,0.0,0.0
29/08/2023,01:13:39,0.000,0.0,0.0,0.0
29/08/2023,01:14:38,0.000,0.0,0.0,0.0
29/08/2023,01:15:39,0.000,0.0,0.0,0.0
29/08/2023,01:16:39,0.000,0.0,0.0,0.0
29/08/2023,01:17:38,0.000,0.0,0.0,0.0
29/08/2023,01:18:39,0.000,0.0,0.0,0.0
29/08/2023,01:19:38,0.000,0.0,0.0,0.0
29/08/2023,01:20:39,0.000,0.0,0.0,0.0
29/08/2023,01:21:38,-0.001,0.0,0.0,0.0
29/08/2023,01:22:38,0.000,0.0,0.0,0.0
29/08/2023,01:23:39,0.000,0.0,0.0,0.0
29/08/2023,01:24:39,0.000,0.0,0.0,0.0
29/08/2023,01:25:38,0.000,0.0,0.0,0.0
29/08/2023,01:26:39,0.000,0.0,0.0,0.0
29/08/2023,01:27:39,0.000,0.0,0.0,0.0
29/08/2023,01:28:39,0.000,0.0,0.0,0.0
29/08/2023,01:29:38,0.001,0.0,0.0,0.0
29/08/2023,01:30:39,0.000,0.0,0.0,0.0
29/08/2023,01:31:39,0.000,0.0,0.0,0.0
29/08/2023,01:32:38,0.000,0.0,0.0,0.0
29/08/2023,01:33:39,0.000,0.0,0.0,0.0
29/08/2023,01:34:37,0.000,0.0,0.0,0.0
29/08/2023,01:35:37,0.000,0.0,0.0,0.0
29/08/2023,01:36:38,0.000,0.0,0.0,0.0
29/08/2023,01:37:39,0.000,0.0,0.0,0.0
29/08/2023,01:38:39,0.000,0.0,0.0,0.0
29/08/2023,01:39:39,0.000,0.0,0.0,0.0
29/08/2023,01:40:38,0.000,0.0,0.0,0.0
29/08/2023,01:41:39,0.000,0.0,0.0,0.0
29/08/2023,01:42:39,0.000,0.0,0.0,0.0
29/08/2023,01:43:38,0.001,0.0,0.0,0.0
29/08/2023,01:44:38,0.001,0.0,0.0,0.0
29/08/2023,01:45:39,0.000,0.0,0.0,0.0
29/08/2023,01:46:39,0.000,0.0,0.0,0.0
29/08/2023,01:47:39,0.000,0.0,0.0,0.0
29/08/2023,01:48:39,0.000,0.0,0.0,0.0
29/08/2023,01:49:39,0.000,0.0,0.0,0.0
29/08/2023,01:50:37,0.000,0.0,0.0,0.0
29/08/2023,01:51:37,0.000,0.0,0.0,0.0
29/08/2023,01:52:38,0.000,0.0,0.0,0.0
29/08/2023,01:53:37,0.000,0.0,0.0,0.0
29/08/2023,01:54:36,0.000,0.0,0.0,0.0
29/08/2023,01:55:39,0.000,0.0,0.0,0.0
29/08/2023,01:56:39,0.000,0.0,0.0,0.0
29/08/2023,01:57:38,0.000,0.0,0.0,0.0
29/08/2023,01:58:39,0.000,0.0,0.0,0.0
29/08/2023,01:59:39,0.000,0.0,0.0,0.0
29/08/2023,02:00:39,-0.001,0.0,0.0,0.0
29/08/2023,02:01:39,0.000,0.0,0.0,0.0
29/08/2023,02:02:37,0.000,0.0,0.0,0.0
29/08/2023,02:03:37,0.000,0.0,0.0,0.0
29/08/2023,02:04:39,0.000,0.0,0.0,0.0
29/08/2023,02:05:38,0.000,0.0,0.0,0.0
29/08/2023,02:06:38,0.000,0.0,0.0,0.0
29/08/2023,02:07:38,0.000,0.0,0.0,0.0
29/08/2023,02:08:39,0.000,0.0,0.0,0.0
29/08/2023,02:09:39,0.000,0.0,0.0,0.0
29/08/2023,02:10:39,0.000,0.0,0.0,0.0
29/08/2023,02:11:39,0.000,0.0,0.0,0.0
29/08/2023,02:12:39,0.000,0.0,0.0,0.0
29/08/2023,02:13:39,-0.000,0.0,0.0,0.0
29/08/2023,02:14:39,0.000,0.0,0.0,0.0
29/08/2023,02:15:38,0.000,0.0,0.0,0.0
29/08/2023,02:16:39,0.000,0.0,0.0,0.0
29/08/2023,02:17:38,0.000,0.0,0.0,0.0
29/08/2023,02:18:38,0.000,0.0,0.0,0.0
29/08/2023,02:19:39,0.000,0.0,0.0,0.0
29/08/2023,02:20:38,0.000,0.0,0.0,0.0
29/08/2023,02:21:39,0.002,0.0,0.0,0.0
29/08/2023,02:22:38,0.000,0.0,0.0,0.0
29/08/2023,02:23:38,0.000,0.0,0.0,0.0
29/08/2023,02:24:39,0.000,0.0,0.0,0.0
29/08/2023,02:25:38,0.000,0.0,0.0,0.0
29/08/2023,02:26:39,0.000,0.0,0.0,0.0
29/08/2023,02:27:38,0.000,0.0,0.0,0.0
29/08/2023,02:28:39,0.000,0.0,0.0,0.0
29/08/2023,02:29:39,0.000,0.0,0.0,0.0
29/08/2023,02:30:38,0.000,0.0,0.0,0.0
29/08/2023,02:31:39,0.000,0.0,0.0,0.0
29/08/2023,02:32:39,0.000,0.0,0.0,0.0
29/08/2023,02:33:38,0.000,0.0,0.0,0.0
29/08/2023,02:34:38,0.000,0.0,0.0,0.0
29/08/2023,02:35:39,-0.000,0.0,0.0,0.0
29/08/2023,02:36:39,0.000,0.0,0.0,0.0
29/08/2023,02:37:39,0.000,0.0,0.0,0.0
29/08/2023,02:38:39,0.000,0.0,0.0,0.0
29/08/2023,02:39:39,0.000,0.0,0.0,0.0
29/08/2023,02:40:39,0.000,0.0,0.0,0.0
29/08/2023,02:41:39,0.000,0.0,0.0,0.0
29/08/2023,02:42:38,0.000,0.0,0.0,0.0
29/08/2023,02:43:39,0.000,0.0,0.0,0.0
29/08/2023,02:44:38,0.000,0.0,0.0,0.0
29/08/2023,02:45:39,0.002,0.0,0.0,0.0
29/08/2023,02:46:39,0.000,0.0,0.0,0.0
29/08/2023,02:47:39,0.000,0.0,0.0,0.0
29/08/2023,02:48:38,0.000,0.0,0.0,0.0
29/08/2023,02:49:39,0.000,0.0,0.0,0.0
29/08/2023,02:50:39,0.000,0.0,0.0,0.0
29/08/2023,02:51:39,0.000,0.0,0.0,0.0
29/08/2023,02:52:39,0.000,0.0,0.0,0.0
29/08/2023,02:53:39,0.000,0.0,0.0,0.0
29/08/2023,02:54:39,0.000,0.0,0.0,0.0
29/08/2023,02:55:39,0.001,0.0,0.0,0.0
29/08/2023,02:56:39,0.000,0.0,0.0,0.0
29/08/2023,02:57:39,0.001,0.0,0.0,0.0
29/08/2023,02:58:38,0.001,0.0,0.0,0.0
29/08/2023,02:59:39,0.000,0.0,0.0,0.0
29/08/2023,03:00:39,0.001,0.0,0.0,0.0
29/08/2023,03:01:39,0.000,0.0,0.0,0.0
29/08/2023,03:02:38,-0.000,0.0,0.0,0.0
29/08/2023,03:03:38,0.000,0.0,0.0,0.0
29/08/2023,03:04:39,0.000,0.0,0.0,0.0
29/08/2023,03:05:39,0.000,0.0,0.0,0.0
29/08/2023,03:06:39,0.001,0.0,0.0,0.0
29/08/2023,03:07:39,0.000,0.0,0.0,0.0
29/08/2023,03:08:39,0.000,0.0,0.0,0.0
29/08/2023,03:09:38,0.001,0.0,0.0,0.0
29/08/2023,03:10:39,0.000,0.0,0.0,0.0
29/08/2023,03:11:39,0.000,0.0,0.0,0.0
29/08/2023,03:12:39,0.001,0.0,0.0,0.0
29/08/2023,03:13:39,0.000,0.0,0.0,0.0
29/08/2023,03:14:39,0.000,0.0,0.0,0.0
29/08/2023,03:15:38,0.001,0.0,0.0,0.0
29/08/2023,03:16:39,0.001,0.0,0.0,0.0
29/08/2023,03:17:39,0.001,0.0,0.0,0.0
29/08/2023,03:18:39,0.001,0.0,0.0,0.0
29/08/2023,03:19:39,0.000,0.0,0.0,0.0
29/08/2023,03:20:38,-0.000,0.0,0.0,0.0
29/08/2023,03:21:37,0.001,0.0,0.0,0.0
29/08/2023,03:22:37,0.000,0.0,0.0,0.0
29/08/2023,03:23:39,0.001,0.0,0.0,0.0
29/08/2023,03:24:39,0.000,0.0,0.0,0.0
29/08/2023,03:25:39,0.001,0.0,0.0,0.0
29/08/2023,03:26:38,0.000,0.0,0.0,0.0
29/08/2023,03:27:39,0.000,0.0,0.0,0.0
29/08/2023,03:28:39,0.001,0.0,0.0,0.0
29/08/2023,03:29:39,0.001,0.0,0.0,0.0
29/08/2023,03:30:39,0.001,0.0,0.0,0.0
29/08/2023,03:31:39,0.000,0.0,0.0,0.0
29/08/2023,03:32:39,0.001,0.0,0.0,0.0
29/08/2023,03:33:38,0.000,0.0,0.0,0.0
29/08/2023,03:34:39,0.000,0.0,0.0,0.0
29/08/2023,03:35:39,0.001,0.0,0.0,0.0
29/08/2023,03:36:38,0.000,0.0,0.0,0.0
29/08/2023,03:37:39,0.001,0.0,0.0,0.0
29/08/2023,03:38:39,0.001,0.0,0.0,0.0
29/08/2023,03:39:39,0.001,0.0,0.0,0.0
29/08/2023,03:40:39,0.001,0.0,0.0,0.0
29/08/2023,03:41:39,0.000,0.0,0.0,0.0
29/08/2023,03:42:39,0.001,0.0,0.0,0.0
29/08/2023,03:43:38,0.001,0.0,0.0,0.0
29/08/2023,03:44:39,0.001,0.0,0.0,0.0
29/08/2023,03:45:39,0.000,0.0,0.0,0.0
29/08/2023,03:46:39,0.000,0.0,0.0,0.0
29/08/2023,03:47:38,0.001,0.0,0.0,0.0
29/08/2023,03:48:38,0.001,0.0,0.0,0.0
29/08/2023,03:49:39,0.001,0.0,0.0,0.0
29/08/2023,03:50:38,0.000,0.0,0.0,0.0
29/08/2023,03:51:36,0.001,0.0,0.0,0.0
29/08/2023,03:52:37,0.001,0.0,0.0,0.0
29/08/2023,03:53:38,0.001,0.0,0.0,0.0
29/08/2023,03:54:39,0.001,0.0,0.0,0.0
29/08/2023,03:55:39,0.001,0.0,0.0,0.0
29/08/2023,03:56:39,0.001,0.0,0.0,0.0
29/08/2023,03:57:39,0.000,0.0,0.0,0.0
29/08/2023,03:58:39,0.001,0.0,0.0,0.0
29/08/2023,03:59:39,0.001,0.0,0.0,0.0
29/08/2023,04:00:39,0.001,0.0,0.0,0.0
29/08/2023,04:01:38,0.001,0.0,0.0,0.0
29/08/2023,04:02:39,0.000,0.0,0.0,0.0
29/08/2023,04:03:39,0.000,0.0,0.0,0.0
29/08/2023,04:04:39,0.001,0.0,0.0,0.0
29/08/2023,04:05:39,0.000,0.0,0.0,0.0
29/08/2023,04:06:39,0.000,0.0,0.0,0.0
29/08/2023,04:07:39,0.001,0.0,0.0,0.0
29/08/2023,04:08:38,0.001,0.0,0.0,0.0
29/08/2023,04:09:39,0.001,0.0,0.0,0.0
29/08/2023,04:10:39,0.000,0.0,0.0,0.0
29/08/2023,04:11:39,0.000,0.0,0.0,0.0
29/08/2023,04:12:39,0.001,0.0,0.0,0.0
29/08/2023,04:13:39,0.000,0.0,0.0,0.0
29/08/2023,04:14:39,0.000,0.0,0.0,0.0
29/08/2023,04:15:37,0.001,0.0,0.0,0.0
29/08/2023,04:16:37,0.001,0.0,0.0,0.0
29/08/2023,04:17:39,0.001,0.0,0.0,0.0
29/08/2023,04:18:39,0.000,0.0,0.0,0.0
29/08/2023,04:19:39,0.001,0.0,0.0,0.0
29/08/2023,04:20:39,0.000,0.0,0.0,0.0
29/08/2023,04:21:39,0.001,0.0,0.0,0.0
29/08/2023,04:22:39,0.000,0.0,0.0,0.0
29/08/2023,04:23:38,0.001,0.0,0.0,0.0
29/08/2023,04:24:39,0.001,0.0,0.0,0.0
29/08/2023,04:25:39,0.000,0.0,0.0,0.0
29/08/2023,04:26:39,0.001,0.0,0.0,0.0
29/08/2023,04:27:39,0.000,0.0,0.0,0.0
29/08/2023,04:28:39,0.001,0.0,0.0,0.0
29/08/2023,04:29:39,0.001,0.0,0.0,0.0
29/08/2023,04:30:39,0.000,0.0,0.0,0.0
29/08/2023,04:31:39,0.001,0.0,0.0,0.0
29/08/2023,04:32:39,0.000,0.0,0.0,0.0
29/08/2023,04:33:39,0.001,0.0,0.0,0.0
29/08/2023,04:34:38,0.000,0.0,0.0,0.0
29/08/2023,04:35:39,0.001,0.0,0.0,0.0
29/08/2023,04:36:43,0.001,0.0,0.0,0.0
29/08/2023,04:37:39,0.001,0.0,0.0,0.0
29/08/2023,04:38:39,0.000,0.0,0.0,0.0
29/08/2023,04:39:39,0.001,0.0,0.0,0.0
29/08/2023,04:40:39,0.001,0.0,0.0,0.0
29/08/2023,04:41:39,0.001,0.0,0.0,0.0
29/08/2023,04:42:39,0.001,0.0,0.0,0.0
29/08/2023,04:43:39,0.000,0.0,0.0,0.0
29/08/2023,04:44:39,0.001,0.0,0.0,0.0
29/08/2023,04:45:39,0.001,0.0,0.0,0.0
29/08/2023,04:46:39,0.001,0.0,0.0,0.0
29/08/2023,04:47:39,0.000,0.0,0.0,0.0
29/08/2023,04:48:39,0.001,0.0,0.0,0.0
29/08/2023,04:49:38,0.001,0.0,0.0,0.0
29/08/2023,04:51:01,0.000,0.0,0.0,0.0
29/08/2023,04:52:40,0.000,0.0,0.0,0.0
29/08/2023,04:53:39,0.000,0.0,0.0,0.0
29/08/2023,04:54:39,0.001,0.0,0.0,0.0
29/08/2023,04:55:39,0.001,0.0,0.0,0.0
29/08/2023,04:56:39,0.002,0.0,0.0,0.0
29/08/2023,04:57:39,0.000,0.0,0.0,0.0
29/08/2023,04:58:39,0.002,0.0,0.0,0.0
29/08/2023,04:59:39,0.001,0.0,0.0,0.0
29/08/2023,05:00:39,0.001,0.0,0.0,0.0
29/08/2023,05:01:39,0.001,0.0,0.0,0.0
29/08/2023,05:02:39,0.002,0.0,0.0,0.0
29/08/2023,05:03:39,0.001,0.0,0.0,0.0
29/08/2023,05:04:39,0.001,0.0,0.0,0.0
29/08/2023,05:05:39,0.001,0.0,0.0,0.0
29/08/2023,05:06:39,0.001,0.0,0.0,0.0
29/08/2023,05:07:39,0.001,0.0,0.0,0.0
29/08/2023,05:08:39,0.001,0.0,0.0,0.0
29/08/2023,05:09:39,0.001,0.0,0.0,0.0
29/08/2023,05:10:39,0.001,0.0,0.0,0.0
29/08/2023,05:11:40,0.001,0.0,0.0,0.0
29/08/2023,05:12:39,0.001,0.0,0.0,0.0
29/08/2023,05:13:39,0.003,0.0,0.0,0.0
29/08/2023,05:14:39,0.001,0.0,0.0,0.0
29/08/2023,05:15:39,0.002,0.0,0.0,0.0
29/08/2023,05:16:39,0.001,0.0,0.0,0.0
29/08/2023,05:17:39,0.002,0.0,0.0,0.0
29/08/2023,05:18:39,0.001,0.0,0.0,0.0
29/08/2023,05:19:39,0.001,0.0,0.0,0.0
29/08/2023,05:20:39,0.002,0.0,0.0,0.0
29/08/2023,05:21:39,0.002,0.0,0.0,0.0
29/08/2023,05:22:39,0.002,0.0,0.0,0.0
29/08/2023,05:23:39,0.002,0.0,0.0,0.0
29/08/2023,05:24:39,0.002,0.0,0.0,0.0
29/08/2023,05:25:39,0.002,0.0,0.0,0.0
29/08/2023,05:26:37,0.004,0.0,0.0,0.0
29/08/2023,05:27:37,0.002,0.0,0.0,0.0
29/08/2023,05:28:39,0.003,0.0,0.0,0.0
29/08/2023,05:29:39,0.004,0.0,0.0,0.0
29/08/2023,05:30:39,0.003,0.0,0.0,0.0
29/08/2023,05:31:39,0.004,0.0,0.0,0.0
29/08/2023,05:32:39,0.003,0.0,0.0,0.0
29/08/2023,05:33:39,0.004,0.0,0.0,0.0
29/08/2023,05:34:39,0.004,0.0,0.0,0.0
29/08/2023,05:35:39,0.003,0.0,0.0,0.0
29/08/2023,05:36:37,0.004,0.0,0.0,0.0
29/08/2023,05:37:37,0.003,0.0,0.0,0.0
29/08/2023,05:38:39,0.003,0.0,0.0,0.0
29/08/2023,05:39:40,0.004,0.0,0.0,0.0
29/08/2023,05:40:39,0.004,0.0,0.0,0.0
29/08/2023,05:41:39,0.003,0.0,0.0,0.0
29/08/2023,05:42:39,0.004,0.0,0.0,0.0
29/08/2023,05:43:39,0.004,0.0,0.0,0.0
29/08/2023,05:44:39,0.004,0.0,0.0,0.0
29/08/2023,05:45:39,0.004,0.0,0.0,0.0
29/08/2023,05:46:39,0.005,0.0,0.0,0.0
29/08/2023,05:47:37,0.004,0.0,0.0,0.0
29/08/2023,05:48:37,0.004,0.0,0.0,0.0
29/08/2023,05:49:39,0.005,0.0,0.0,0.0
29/08/2023,05:50:40,0.005,0.0,0.0,0.0
29/08/2023,05:51:39,0.006,0.0,0.0,0.0
29/08/2023,05:52:39,0.006,0.0,0.0,0.0
29/08/2023,05:53:39,0.005,0.0,0.0,0.0
29/08/2023,05:54:39,0.006,0.0,0.0,0.0
29/08/2023,05:55:39,0.005,0.0,0.0,0.0
29/08/2023,05:56:39,0.006,0.0,0.0,0.0
29/08/2023,05:57:39,0.007,0.0,0.0,0.0
29/08/2023,05:58:40,0.006,0.0,0.0,0.0
29/08/2023,05:59:39,0.007,0.0,0.001,0.001
29/08/2023,06:00:39,0.008,0.0,0.001,0.0
29/08/2023,06:01:39,0.006,0.0,0.001,0.0
29/08/2023,06:02:39,0.008,0.0,0.001,0.0
29/08/2023,06:03:39,0.007,0.0,0.001,0.0
29/08/2023,06:04:39,0.006,0.0,0.001,0.0
29/08/2023,06:05:39,0.007,0.0,0.001,0.0
29/08/2023,06:06:39,0.006,0.0,0.001,0.0
29/08/2023,06:07:39,0.007,0.0,0.001,0.0
29/08/2023,06:08:39,0.007,0.0,0.002,0.001
29/08/2023,06:09:39,0.008,0.0,0.002,0.0
29/08/2023,06:10:39,0.009,0.0,0.002,0.0
29/08/2023,06:11:39,0.009,0.0,0.002,0.0
29/08/2023,06:12:39,0.009,0.0,0.002,0.0
29/08/2023,06:13:39,0.010,0.0,0.002,0.0
29/08/2023,06:14:39,0.009,0.0,0.002,0.0
29/08/2023,06:15:39,0.011,0.0,0.003,0.001
29/08/2023,06:16:40,0.011,0.0,0.003,0.0
29/08/2023,06:17:39,0.013,0.0,0.003,0.0
29/08/2023,06:18:37,0.012,0.0,0.003,0.0
29/08/2023,06:19:38,0.013,0.0,0.003,0.0
29/08/2023,06:20:38,0.013,0.0,0.004,0.001
29/08/2023,06:21:40,0.013,0.0,0.004,0.0
29/08/2023,06:23:03,0.014,0.0,0.004,0.0
29/08/2023,06:24:39,0.014,0.0,0.005,0.001
29/08/2023,06:25:39,0.013,0.0,0.005,0.0
29/08/2023,06:26:39,0.014,0.0,0.005,0.0
29/08/2023,06:27:40,0.015,0.0,0.005,0.0
29/08/2023,06:28:40,0.014,0.0,0.005,0.0
29/08/2023,06:29:39,0.016,0.0,0.006,0.001
29/08/2023,06:30:39,0.015,0.0,0.006,0.0
29/08/2023,06:31:39,0.015,0.0,0.006,0.0
29/08/2023,06:32:40,0.016,0.0,0.006,0.0
29/08/2023,06:33:39,0.015,0.0,0.007,0.001
29/08/2023,06:34:40,0.016,0.0,0.007,0.0
29/08/2023,06:35:39,0.017,0.0,0.007,0.0
29/08/2023,06:36:39,0.017,0.0,0.008,0.001
29/08/2023,06:37:39,0.017,0.0,0.008,0.0
29/08/2023,06:38:40,0.018,0.0,0.008,0.0
29/08/2023,06:39:39,0.019,0.0,0.008,0.0
29/08/2023,06:40:40,0.020,0.0,0.009,0.001
29/08/2023,06:41:39,0.021,0.0,0.009,0.0
29/08/2023,06:42:39,0.021,0.0,0.009,0.0
29/08/2023,06:43:39,0.022,0.0,0.01,0.001
29/08/2023,06:44:39,0.022,0.0,0.01,0.0
29/08/2023,06:45:39,0.024,0.0,0.011,0.001
29/08/2023,06:46:40,0.025,0.0,0.011,0.0
29/08/2023,06:47:39,0.025,0.0,0.011,0.0
29/08/2023,06:48:39,0.025,0.0,0.012,0.001
29/08/2023,06:49:39,0.026,0.0,0.012,0.0
29/08/2023,06:50:37,0.026,0.0,0.013,0.001
29/08/2023,06:51:37,0.027,0.0,0.013,0.0
29/08/2023,06:52:39,0.027,0.0,0.014,0.001
29/08/2023,06:53:39,0.028,0.0,0.014,0.0
29/08/2023,06:54:39,0.030,0.0,0.015,0.001
29/08/2023,06:55:40,0.030,0.0,0.015,0.0
29/08/2023,06:56:39,0.031,0.0,0.016,0.001
29/08/2023,06:57:39,0.033,0.0,0.016,0.0
29/08/2023,06:58:39,0.034,0.0,0.017,0.001
29/08/2023,06:59:40,0.036,0.0,0.017,0.0
29/08/2023,07:00:43,0.037,0.0,0.018,0.001
29/08/2023,07:01:40,0.038,0.0,0.018,0.0
29/08/2023,07:02:39,0.039,0.0,0.019,0.001
29/08/2023,07:03:39,0.040,0.0,0.02,0.001
29/08/2023,07:04:40,0.041,0.0,0.02,0.0
29/08/2023,07:05:39,0.041,0.0,0.021,0.001
29/08/2023,07:06:39,0.042,0.0,0.022,0.001
29/08/2023,07:07:40,0.041,0.0,0.022,0.0
29/08/2023,07:08:39,0.040,0.0,0.023,0.001
29/08/2023,07:09:39,0.040,0.0,0.024,0.001
29/08/2023,07:10:39,0.040,0.0,0.024,0.0
29/08/2023,07:11:39,0.041,0.0,0.025,0.001
29/08/2023,07:12:39,0.042,0.0,0.026,0.001
29/08/2023,07:13:40,0.043,0.0,0.027,0.001
29/08/2023,07:14:39,0.044,0.0,0.027,0.0
29/08/2023,07:15:39,0.045,0.0,0.028,0.001
29/08/2023,07:16:40,0.047,0.0,0.029,0.001
29/08/2023,07:17:39,0.047,0.0,0.03,0.001
29/08/2023,07:18:39,0.049,0.0,0.03,0.0
29/08/2023,07:19:39,0.049,0.0,0.031,0.001
29/08/2023,07:20:39,0.050,0.0,0.032,0.001
29/08/2023,07:21:39,0.051,0.0,0.033,0.001
29/08/2023,07:22:37,0.050,0.0,0.034,0.001
29/08/2023,07:23:37,0.054,0.0,0.035,0.001
29/08/2023,07:24:39,0.055,0.0,0.035,0.0
29/08/2023,07:25:39,0.057,0.0,0.036,0.001
29/08/2023,07:26:40,0.060,0.0,0.037,0.001
29/08/2023,07:27:39,0.062,0.0,0.038,0.001
29/08/2023,07:28:39,0.065,0.0,0.039,0.001
29/08/2023,07:29:40,0.067,0.0,0.041,0.002
29/08/2023,07:30:39,0.066,0.0,0.042,0.001
29/08/2023,07:31:39,0.069,0.0,0.043,0.001
29/08/2023,07:32:39,0.071,0.0,0.044,0.001
29/08/2023,07:33:39,0.074,0.0,0.045,0.001
29/08/2023,07:34:39,0.076,0.0,0.046,0.001
29/08/2023,07:35:39,0.078,0.0,0.048,0.002
29/08/2023,07:36:39,0.082,0.0,0.049,0.001
29/08/2023,07:37:39,0.086,0.0,0.05,0.001
29/08/2023,07:38:40,0.088,0.0,0.052,0.002
29/08/2023,07:39:39,0.092,0.0,0.053,0.001
29/08/2023,07:40:39,0.095,0.0,0.055,0.002
29/08/2023,07:41:40,0.097,0.0,0.057,0.002
29/08/2023,07:42:39,0.102,0.0,0.058,0.001
29/08/2023,07:43:39,0.106,0.0,0.06,0.002
29/08/2023,07:44:39,0.109,0.0,0.062,0.002
29/08/2023,07:45:40,0.114,0.0,0.064,0.002
29/08/2023,07:46:39,0.118,0.0,0.065,0.001
29/08/2023,07:47:39,0.123,0.0,0.067,0.002
29/08/2023,07:48:38,0.127,0.0,0.069,0.002
29/08/2023,07:49:37,0.132,0.0,0.072,0.003
29/08/2023,07:50:39,0.136,0.0,0.074,0.002
29/08/2023,07:51:39,0.141,0.0,0.076,0.002
29/08/2023,07:52:40,0.147,0.0,0.079,0.003
29/08/2023,07:53:39,0.151,0.0,0.081,0.002
29/08/2023,07:54:39,0.157,0.0,0.084,0.003
29/08/2023,07:55:39,0.159,0.0,0.086,0.002
29/08/2023,07:56:40,0.160,0.0,0.089,0.003
29/08/2023,07:57:39,0.162,0.0,0.092,0.003
29/08/2023,07:58:39,0.164,0.0,0.094,0.002
29/08/2023,07:59:40,0.167,0.0,0.097,0.003
29/08/2023,08:00:39,0.171,0.0,0.1,0.003
29/08/2023,08:01:40,0.174,0.0,0.103,0.003
29/08/2023,08:02:39,0.176,0.0,0.106,0.003
29/08/2023,08:03:39,0.178,0.0,0.109,0.003
29/08/2023,08:04:40,0.180,0.0,0.112,0.003
29/08/2023,08:05:39,0.181,0.0,0.115,0.003
29/08/2023,08:06:39,0.185,0.0,0.118,0.003
29/08/2023,08:07:40,0.189,0.0,0.121,0.003
29/08/2023,08:08:39,0.194,0.0,0.124,0.003
29/08/2023,08:09:39,0.196,0.0,0.127,0.003
29/08/2023,08:10:39,0.198,0.0,0.13,0.003
29/08/2023,08:11:39,0.198,0.0,0.134,0.004
29/08/2023,08:12:39,0.197,0.0,0.137,0.003
29/08/2023,08:13:39,0.200,0.0,0.14,0.003
29/08/2023,08:14:40,0.203,0.0,0.144,0.004
29/08/2023,08:15:39,0.204,0.0,0.147,0.003
29/08/2023,08:16:39,0.206,0.0,0.151,0.004
29/08/2023,08:17:40,0.207,0.0,0.154,0.003
29/08/2023,08:18:39,0.208,0.0,0.157,0.003
29/08/2023,08:19:39,0.209,0.0,0.161,0.004
29/08/2023,08:20:40,0.212,0.0,0.164,0.003
29/08/2023,08:21:39,0.213,0.0,0.168,0.004
29/08/2023,08:22:39,0.215,0.0,0.172,0.004
29/08/2023,08:23:40,0.217,0.0,0.175,0.003
29/08/2023,08:24:39,0.219,1.0,0.179,0.004
29/08/2023,08:25:39,0.221,1.0,0.182,0.003
29/08/2023,08:26:40,0.224,1.0,0.186,0.004
29/08/2023,08:27:39,0.228,1.0,0.19,0.004
29/08/2023,08:28:39,0.230,1.0,0.194,0.004
29/08/2023,08:29:39,0.232,1.0,0.198,0.004
29/08/2023,08:30:39,0.234,1.0,0.201,0.003
29/08/2023,08:31:39,0.237,1.0,0.205,0.004
29/08/2023,08:32:39,0.240,1.0,0.209,0.004
29/08/2023,08:33:39,0.245,1.0,0.213,0.004
29/08/2023,08:34:39,0.250,1.0,0.217,0.004
29/08/2023,08:35:39,0.256,1.0,0.222,0.005
29/08/2023,08:36:39,0.265,1.0,0.226,0.004
29/08/2023,08:37:39,0.273,1.0,0.23,0.004
29/08/2023,08:38:40,0.283,1.0,0.235,0.005
29/08/2023,08:39:39,0.291,1.0,0.24,0.005
29/08/2023,08:40:39,0.303,1.0,0.245,0.005
29/08/2023,08:41:40,0.313,1.0,0.25,0.005
29/08/2023,08:42:39,0.324,1.0,0.255,0.005
29/08/2023,08:43:39,0.336,1.0,0.261,0.006
29/08/2023,08:44:39,0.347,1.0,0.267,0.006
29/08/2023,08:45:40,0.359,1.0,0.272,0.005
29/08/2023,08:46:39,0.365,1.0,0.278,0.006
29/08/2023,08:47:39,0.370,1.0,0.284,0.006
29/08/2023,08:48:39,0.373,1.0,0.291,0.007
29/08/2023,08:49:38,0.376,1.0,0.297,0.006
29/08/2023,08:50:38,0.379,1.0,0.303,0.006
29/08/2023,08:51:40,0.378,1.0,0.31,0.007
29/08/2023,08:52:39,0.379,1.0,0.316,0.006
29/08/2023,08:53:39,0.380,1.0,0.323,0.007
29/08/2023,08:54:40,0.386,1.0,0.329,0.006
29/08/2023,08:55:39,0.391,1.0,0.336,0.007
29/08/2023,08:56:40,0.396,1.0,0.342,0.006
29/08/2023,08:57:39,0.395,1.0,0.349,0.007
29/08/2023,08:58:39,0.396,1.0,0.355,0.006
29/08/2023,08:59:39,0.397,1.0,0.362,0.007
29/08/2023,09:00:39,0.402,1.0,0.368,0.006
29/08/2023,09:01:39,0.410,1.0,0.375,0.007
29/08/2023,09:02:38,0.420,1.0,0.382,0.007
29/08/2023,09:03:37,0.437,1.0,0.389,0.007
29/08/2023,09:04:40,0.444,1.0,0.397,0.008
29/08/2023,09:05:39,0.457,1.0,0.404,0.007
29/08/2023,09:06:37,0.483,1.0,0.412,0.008
29/08/2023,09:07:38,0.485,1.0,0.42,0.008
29/08/2023,09:08:40,0.491,1.0,0.428,0.008
29/08/2023,09:09:39,0.498,1.0,0.436,0.008
29/08/2023,09:10:39,0.501,1.0,0.445,0.009
29/08/2023,09:11:40,0.500,1.0,0.453,0.008
29/08/2023,09:12:39,0.504,1.0,0.462,0.009
29/08/2023,09:13:39,0.518,1.0,0.47,0.008
29/08/2023,09:14:39,0.520,1.0,0.479,0.009
29/08/2023,09:15:39,0.519,1.0,0.488,0.009
29/08/2023,09:16:38,0.517,1.0,0.496,0.008
29/08/2023,09:17:38,0.522,1.0,0.505,0.009
29/08/2023,09:18:39,0.533,1.0,0.513,0.008
29/08/2023,09:19:39,0.539,1.0,0.523,0.01
29/08/2023,09:20:40,0.538,1.0,0.532,0.009
29/08/2023,09:21:39,0.544,1.0,0.541,0.009
29/08/2023,09:22:39,0.557,1.0,0.55,0.009
29/08/2023,09:23:39,0.585,1.0,0.56,0.01
29/08/2023,09:24:40,0.587,1.0,0.569,0.009
29/08/2023,09:25:39,0.618,1.0,0.579,0.01
29/08/2023,09:26:40,0.601,1.0,0.589,0.01
29/08/2023,09:27:39,0.606,1.0,0.599,0.01
29/08/2023,09:28:40,0.633,1.0,0.61,0.011
29/08/2023,09:29:39,0.621,1.0,0.62,0.01
29/08/2023,09:30:39,0.648,1.0,0.631,0.011
29/08/2023,09:31:40,0.658,2.0,0.642,0.011
29/08/2023,09:32:39,0.705,2.0,0.653,0.011
29/08/2023,09:33:39,0.672,2.0,0.664,0.011
29/08/2023,09:34:40,0.689,2.0,0.676,0.012
29/08/2023,09:35:39,0.732,2.0,0.688,0.012
29/08/2023,09:36:39,0.702,2.0,0.7,0.012
29/08/2023,09:37:37,0.691,2.0,0.711,0.011
29/08/2023,09:38:38,0.722,2.0,0.723,0.012
29/08/2023,09:39:39,0.730,2.0,0.735,0.012
29/08/2023,09:40:37,0.760,2.0,0.748,0.013
29/08/2023,09:41:37,0.737,2.0,0.759,0.011
29/08/2023,09:42:40,0.748,2.0,0.772,0.013
29/08/2023,09:43:40,0.741,2.0,0.785,0.013
29/08/2023,09:44:41,0.740,2.0,0.798,0.013
29/08/2023,09:45:39,0.769,2.0,0.81,0.012
29/08/2023,09:46:38,0.765,2.0,0.823,0.013
29/08/2023,09:47:37,0.772,2.0,0.835,0.012
29/08/2023,09:48:40,0.778,2.0,0.849,0.014
29/08/2023,09:49:39,0.790,2.0,0.862,0.013
29/08/2023,09:50:39,0.792,2.0,0.875,0.013
29/08/2023,09:51:40,0.800,2.0,0.889,0.014
29/08/2023,09:52:39,0.805,2.0,0.902,0.013
29/08/2023,09:53:39,0.810,2.0,0.915,0.013
29/08/2023,09:54:39,0.814,2.0,0.929,0.014
29/08/2023,09:55:39,0.818,2.0,0.943,0.014
29/08/2023,09:56:40,0.820,2.0,0.956,0.013
29/08/2023,09:57:39,0.826,2.0,0.97,0.014
29/08/2023,09:58:39,0.829,2.0,0.984,0.014
29/08/2023,09:59:40,0.834,2.0,0.998,0.014
29/08/2023,10:00:39,0.838,2.0,1.011,0.013
29/08/2023,10:01:39,0.845,2.0,1.025,0.014
29/08/2023,10:02:40,0.846,2.0,1.04,0.015
29/08/2023,10:03:39,0.849,2.0,1.053,0.013
29/08/2023,10:04:39,0.853,2.0,1.068,0.015
29/08/2023,10:05:40,0.863,2.0,1.082,0.014
29/08/2023,10:06:39,0.865,2.0,1.097,0.015
29/08/2023,10:07:39,0.872,2.0,1.111,0.014